This demonstration page uses our WeatherBlox Daily Observations layout. Learn more.

Left ArrowRight Arrow

Hourly Observations for April 21, 2018

Temp ( °F °C ) Dew Point ( °F °C ) Humidity (%) Winds ( mph kmh ) Pressure ( in mb ) Visibility ( mi km ) Precip ( " mm )
12:46 am 00:46 Cloudy with Rain 44 6.7 40 4.4 85 85 SE 13 20 30.36 1028 4 6 0.07 1.78
12:53 am 00:53 Cloudy with Rain 44 6.7 40 4.4 85 85 ESE 9 15 30.32 1027 5 8 0.09 2.29
1:09 am 01:09 Cloudy with Light Rain 44 6.7 38 3.3 79 79 ESE 17 28 30.33 1027 10 16 0.01 0.25
1:53 am 01:53 Cloudy with Light Rain 43 6.1 39 3.9 86 86 E 8 13 30.30 1026 10 16 0.04 1.02
2:53 am 02:53 Cloudy with Light Rain 42 5.6 39 3.9 89 89 SE 8 13 30.29 1026 10 16 0.01 0.25
3:10 am 03:10 Cloudy with Light Rain 43 6 39 4 87 87 SE 9 15 30.33 1027 7 11 0.00 0.00
3:53 am 03:53 Cloudy 42 5.6 40 4.4 92 92 E 8 13 30.28 1026 10 16 0.03 0.76
4:02 am 04:02 Cloudy 42 5.6 40 4.4 92 92 E 8 13 30.30 1026 10 16 0.00 0.00
4:53 am 04:53 Cloudy 41 5 40 4.4 96 96 NE 8 13 30.24 1024 10 16 0.00 0.00
5:53 am 05:53 Cloudy 41 5 40 4.4 96 96 NNE 3 6 30.25 1024 10 16 0.00 0.00
6:53 am 06:53 Cloudy 41 5 40 4.4 96 96 NNE 5 7 30.25 1024 10 16 0.00 0.00
7:53 am 07:53 Cloudy 42 5.6 39 3.9 89 89 ENE 12 19 30.25 1024 10 16 0.00 0.00
8:53 am 08:53 Cloudy 42 5.6 39 3.9 89 89 NE 8 13 30.27 1025 10 16 0.00 0.00
9:53 am 09:53 Cloudy 42 5.6 38 3.3 85 85 E 7 11 30.27 1025 10 16 0.00 0.00
10:53 am 10:53 Cloudy 43 6.1 37 2.8 80 80 ESE 6 9 30.28 1025 10 16 0.00 0.00
11:53 am 11:53 Cloudy 43 6.1 39 3.9 86 86 E 5 7 30.28 1026 10 16 0.00 0.00
12:36 pm 12:36 Cloudy 43 6.1 40 4.4 89 89 E 7 11 30.27 1025 8 13 0.00 0.00
12:53 pm 12:53 Cloudy 43 6.1 41 5 93 93 ENE 8 13 30.27 1025 9 14 0.00 0.00
1:08 pm 13:08 Cloudy 43 6.1 40 4.4 89 89 E 7 11 30.27 1025 9 14 0.00 0.00
1:20 pm 13:20 Cloudy 43 6 41 5 93 93 E 6 9 30.27 1025 7 11 0.00 0.00
1:33 pm 13:33 Cloudy 43 6.1 41 5 93 93 E 6 9 30.27 1025 7 11 0.00 0.00
1:53 pm 13:53 Cloudy 43 6.1 41 5 93 93 E 5 7 30.26 1025 7 11 0.00 0.00
2:15 pm 14:15 Cloudy 43 6.1 41 5 93 93 E 7 11 30.27 1025 10 16 0.00 0.00
2:49 pm 14:49 Cloudy 43 6 41 5 93 93 E 9 15 30.27 1025 10 16 0.00 0.03
2:53 pm 14:53 Cloudy 43 6.1 41 5 93 93 E 10 17 30.25 1025 10 16 0.00 0.03
3:10 pm 15:10 Cloudy 43 6.1 41 5 93 93 E 8 13 30.24 1024 10 16 0.00 0.00
3:53 pm 15:53 Cloudy with Light Rain 44 6.7 42 5.6 93 93 E 6 9 30.25 1024 7 11 0.00 0.03
4:53 pm 16:53 Cloudy 44 6.7 40 4.4 85 85 E 10 17 30.24 1024 10 16 0.01 0.25
5:53 pm 17:53 Cloudy 43 6.1 40 4.4 89 89 ENE 7 11 30.25 1024 10 16 0.00 0.00
6:53 pm 18:53 Cloudy 44 6.7 42 5.6 93 93 NNE 6 9 30.25 1025 10 16 0.00 0.00
7:53 pm 19:53 Cloudy 44 6.7 42 5.6 93 93 N 6 9 30.26 1025 10 16 0.00 0.00
8:53 pm 20:53 Cloudy 43 6.1 41 5 93 93 N 5 7 30.26 1025 10 16 0.00 0.00
9:53 pm 21:53 Cloudy with Light Rain 43 6.1 40 4.4 89 89 NE 7 11 30.28 1025 10 16 0.00 0.03
10:50 pm 22:50 Cloudy with Light Rain 41 5 39 4 93 93 E 10 17 30.30 1026 6 10 0.00 0.00
10:53 pm 22:53 Cloudy with Light Rain 41 5 40 4.4 96 96 E 10 17 30.30 1026 7 11 0.01 0.25
11:53 pm 23:53 Cloudy with Light Rain 41 5 40 4.4 96 96 ESE 6 9 30.30 1026 7 11 0.01 0.25

Powered by AerisWeather